Starlink 6160

operational
NORAD ID: 56382 Int'l Des: 2023-061 Owner: SPXS Country: US Constellation: starlink
LEOCIRCULAR

Über Starlink 6160

Beschreibung wird geladen...

Live-Position

3D-Globus wird geladen...

Nächste Überflüge

Höhenverlauf

Altitude vs Time

uPlot chart will show altitude changes over time

Zweizeiliger Elementsatz

1 56382U 23061J 25304.70674576 .00004993 00000-0 38426-3 0 9993
2 56382 43.0038 178.2015 0000911 281.4796 78.5944 15.02549054137357
Epoch: 31. Okt. 2025 • Age: 19 hours

Aktueller Status

Höhe 571.1 km
Geschwindigkeit 7.58 km/s
Subsatellitenpunkt -41.47°S, 151.21°W
Startdatum 4. Mai 2023
Alter 2.4 years
Typ internet

Technische Details

Klassifizierung Payload
Masse 305.00 kg
Trockenmasse 290.00 kg
Gesamtmasse 305.00 kg
Länge 0.20 m
Durchmesser 2.80 m
Spannweite 9.00 m
Form Box + pan
Hersteller SPXS
Bus-Typ Starlink
Phasenstatus In Orbit
Besitzer/Staat SPXS/US

Große Konstellationen

Loading constellations...